Location: *
(50.2903°S, 172.5375°W)
Time: 01:34:18
(UTC+00:00)

SL-16 R/B - Pass Details

Date: 17 November 2019
Orbit: 985 x 1007 km, 99.4° (Epoch: 10 December)

Event Time Altitude Azimuth Distance (km) Brightness Sun altitude
Rises 12:57:22 0° 156° (SSE) 3,765 7.4 -17.1°
Reaches altitude 10° 13:00:28 10° 141° (SE) 2,811 6.1 -16.9°
Maximum altitude 13:05:22 23° 90° (E) 2,009 4.4 -16.6°
Drops below altitude 10° 13:10:14 10° 39° (NE) 2,793 4.7 -16.2°
Enters shadow 13:12:43 - 27° (NNE) 3,552 5.1 -16.0°
